Desert Center, CA

2:02 PM PST on February 27, 2017 (GMT -0800)
Blythe

Weather History for KBLH - February, 2015

Change the Weather History Date:

Wednesday, February 11, 2015

  Actual Average Record
Temperature  
Mean Temperature 71 °F -  
Max Temperature 81 °F 67 °F 84 °F (1971)
Min Temperature 61 °F 44 °F 34 °F (1986)
Cooling Degree Days 6    
Growing Degree Days 21 (Base 50)    
Moisture  
Dew Point 24 °F    
Average Humidity 18    
Maximum Humidity 24    
Minimum Humidity 11    
Precipitation  
Precipitation 0.00 in - - ()
Sea Level Pressure  
Sea Level Pressure 30.06 in    
Wind  
Wind Speed 15 mph (NNW)    
Max Wind Speed 26 mph    
Max Gust Speed 32 mph    
Visibility 10 miles    
Events      
Averages and records for this station are not official NWS values.
T = Trace of Precipitation, MM = Missing Value Source: NWS Daily Summary

Daily Weather History Graph

Daily Weather History Graph

Search for Another Location

Airport or City:

Trip Planner

Search our weather history database for the weather conditions in past years. The results will help you decide how hot, cold, wet, or windy it might be!

Date:

Astronomy

Feb. 11, 2015 Rise Set
Actual Time 6:27 AM PST 5:19 PM PST
Civil Twilight 6:01 AM PST 5:45 PM PST
Nautical Twilight 5:32 AM PST 6:14 PM PST
Astronomical Twilight 5:03 AM PST 6:43 PM PST
Moon No Moon Rise 10:39 AM PST (2/11)
Length of Visible Light 11h 43m
Length of Day
10h 52m
Waning Gibbous, 53% of the Moon is Illuminated
Feb 11
Waning Gibbous
Feb 11
Last Quarter
Feb 18
New
Feb 25
First Quarter
Mar 5
Full

Hourly Weather History & Observations

Time (PST) Temp. Dew Point Humidity Pressure Visibility Wind Dir Wind Speed Gust Speed Precip Events Conditions
12:52 AM 64.9 °F 24.1 °F 21% 29.98 in 10.0 mi NNW 11.5 mph - N/A   Clear
1:52 AM 62.1 °F 25.0 °F 24% 29.99 in 10.0 mi North 11.5 mph - N/A   Clear
2:52 AM 63.0 °F 24.1 °F 23% 29.99 in 10.0 mi North 9.2 mph - N/A   Clear
3:52 AM 64.0 °F 23.0 °F 21% 29.99 in 10.0 mi North 19.6 mph - N/A   Clear
4:52 AM 63.0 °F 24.1 °F 23% 30.01 in 10.0 mi NNW 15.0 mph - N/A   Clear
5:52 AM 61.0 °F 24.1 °F 24% 30.04 in 10.0 mi North 13.8 mph - N/A   Clear
6:52 AM 61.0 °F 24.1 °F 24% 30.06 in 10.0 mi NNW 15.0 mph - N/A   Clear
7:52 AM 64.9 °F 25.0 °F 22% 30.09 in 10.0 mi NNW 20.7 mph - N/A   Clear
8:52 AM 70.0 °F 25.0 °F 18% 30.09 in 10.0 mi North 23.0 mph 31.1 mph N/A   Clear
9:52 AM 73.0 °F 26.1 °F 17% 30.10 in 10.0 mi North 26.5 mph 32.2 mph N/A   Clear
10:52 AM 75.9 °F 25.0 °F 15% 30.10 in 10.0 mi North 21.9 mph - N/A   Clear
11:52 AM 78.1 °F 24.1 °F 14% 30.07 in 10.0 mi North 16.1 mph - N/A   Clear
12:52 PM 80.1 °F 24.1 °F 13% 30.04 in 10.0 mi North 19.6 mph 24.2 mph N/A   Clear
1:52 PM 81.0 °F 21.0 °F 11% 30.03 in 10.0 mi North 18.4 mph - N/A   Clear
2:52 PM 81.0 °F 21.0 °F 11% 30.03 in 10.0 mi North 17.3 mph - N/A   Clear
3:52 PM 81.0 °F 21.0 °F 11% 30.03 in 10.0 mi North 16.1 mph - N/A   Clear
4:52 PM 79.0 °F 23.0 °F 13% 30.04 in 10.0 mi North 12.7 mph - N/A   Clear
5:52 PM 73.9 °F 24.1 °F 16% 30.05 in 10.0 mi North 13.8 mph - N/A   Clear
6:52 PM 70.0 °F 25.0 °F 18% 30.08 in 10.0 mi North 10.4 mph - N/A   Clear
7:52 PM 70.0 °F 25.0 °F 18% 30.09 in 10.0 mi North 12.7 mph - N/A   Clear
8:52 PM 70.0 °F 25.0 °F 18% 30.10 in 10.0 mi NNW 17.3 mph - N/A   Clear
9:52 PM 69.1 °F 25.0 °F 19% 30.10 in 10.0 mi NNW 17.3 mph - N/A   Clear
10:52 PM 66.0 °F 26.1 °F 22% 30.12 in 10.0 mi NNW 5.8 mph - N/A   Clear
11:52 PM 70.0 °F 25.0 °F 18% 30.11 in 10.0 mi NNW 13.8 mph - N/A   Clear